Location: Boiro
(42.6475°N, 8.8834°W)
Time: 22:42:43
(UTC+01:00)

Altair - Pass Details

Date: 09 December 2021
Orbit: 1501 x 1683 km, 47.2° (Epoch: 18 January)

Event Time Altitude Azimuth Distance (km) Brightness Sun altitude
Rises 14:08:39 0° 205° (SSW) 4,856 11.4 23.8°
Reaches altitude 10° 14:12:07 10° 197° (SSW) 3,848 11.6 23.7°
Maximum altitude 14:20:44 37° 135° (SE) 2,300 9.1 23.4°
Drops below altitude 10° 14:29:05 10° 73° (ENE) 3,733 9.3 23.0°
Sets 14:32:22 0° 65° (ENE) 4,696 9.7 22.8°
